Location: Althorst
(53.6379°N, 10.7715°E)
Time: 19:01:54
(UTC+00:00)

CSL-04 Rocket - Pass Details

Date: 10 December 2019
Orbit: 807 x 859 km, 99.0° (Epoch: 18 January)

Event Time Altitude Azimuth Distance (km) Brightness Sun altitude
Rises 18:05:29 0° 178° (S) 3,313 6.8 -26.4°
Reaches altitude 10° 18:07:52 10° 183° (S) 2,386 6.1 -26.8°
Maximum altitude 18:13:00 52° 259° (W) 1,005 4.3 -27.6°
Drops below altitude 10° 18:18:12 10° 336° (NNW) 2,416 6.3 -28.3°
Sets 18:20:38 0° 342° (NNW) 3,358 7.0 -28.7°
